Location: Newark
(52.2090°N, 4.1550°W)
Time: 22:49:05
(UTC+00:00)

Tiros 1 - Visible Passes

Search period start: 15 September 2019 00:00
Search period end: 25 September 2019 00:00
Orbit: 631 x 664 km, 48.4° (Epoch: 14 September)

Date Brightness Start Highest point End Pass type
(mag) Time Alt. Az. Time Alt. Az. Time Alt. Az.
15 Sep 8.7 20:30:52 10° W 20:34:35 24° SSW 20:36:12 20° S visible
16 Sep 8.2 19:14:35 10° W 19:18:53 37° SSW 19:23:08 10° SE visible
16 Sep 9.3 20:57:43 10° WSW 21:00:11 14° SW 21:01:06 14° SSW visible
17 Sep 8.8 19:40:49 10° W 19:44:38 25° SSW 19:48:23 10° SSE visible
18 Sep 9.4 20:07:34 10° WSW 20:10:14 15° SW 20:12:53 10° S visible
19 Sep 8.8 18:50:46 10° W 18:54:40 26° SSW 18:58:31 10° SSE visible
20 Sep 9.5 19:17:25 10° WSW 19:20:17 16° SW 19:23:07 10° S visible
